[Iaude] MPEC L10: 2022 KY6 [a=1.55,e=0.28,i=39.1,H=22.1]

mpec at marsden.cfa.harvard.edu mpec at marsden.cfa.harvard.edu
Thu Jun 2 07:06:15 EDT 2022


M.P.E.C. 2022-L10                                  Issued 2022 June 2, 10:59 UT

     The Minor Planet Electronic Circulars contain information on unusual
         minor planets and routine data on comets.  They are published
    on behalf of Division F of the International Astronomical Union by the
          Minor Planet Center, Smithsonian Astrophysical Observatory,
                          Cambridge, MA 02138, U.S.A.

             Prepared using the Tamkin Foundation Computer Network

                              MPC at CFA.HARVARD.EDU
            URL https://www.minorplanetcenter.net/    ISSN 1523-6714

                                    2022 KY6                                    


Observations:
     K22K06Y* C2022 05 31.21417212 57 01.685-12 42 27.65         20.76GVEL010G96
     K22K06Y  C2022 05 31.21940912 57 03.575-12 41 29.83         20.56GVEL010G96
     K22K06Y  C2022 05 31.22463812 57 05.479-12 40 33.89         20.47GVEL010G96
     K22K06Y  C2022 05 31.22986512 57 07.330-12 39 36.79         20.78GVEL010G96
     K22K06Y KC2022 05 31.29460012 57 30.640-12 27 50.90         20.50GVEL010I52
     K22K06Y KC2022 05 31.29596212 57 31.170-12 27 36.30         20.21GVEL010I52
     K22K06Y KC2022 05 31.29732412 57 31.670-12 27 21.90         20.23GVEL010I52
     K22K06Y KC2022 05 31.29868712 57 32.140-12 27 06.70         20.62GVEL010I52
     K22K06Y 2C2022 05 31.93793113 01 27.593-10 33 00.06         20.1 GVEL010J04
     K22K06Y KC2022 05 31.98992613 01 46.740-10 23 15.11         19.9 GXEL010Y00
     K22K06Y KC2022 06 01.00288913 01 51.190-10 20 57.91         19.8 GXEL010Y00
     K22K06Y KC2022 06 01.01564513 01 55.529-10 18 44.17         19.7 GXEL010Y00
     K22K06Y mC2022 06 01.15025113 02 44.567-09 55 47.17         21.06GVEL010I52
     K22K06Y mC2022 06 01.15071613 02 44.704-09 55 42.28         19.96GVEL010I52
     K22K06Y mC2022 06 01.15118213 02 44.887-09 55 38.10         20.60GVEL010I52
     K22K06Y mC2022 06 01.15164813 02 45.006-09 55 32.52         20.36GVEL010I52
     K22K06Y  C2022 06 01.19874513 03 01.385-09 47 21.39         20.8 GVEL010654
     K22K06Y  C2022 06 01.23341513 03 13.197-09 41 19.06         20.5 GVEL010654
     K22K06Y  C2022 06 01.28077613 03 29.380-09 33 04.47         20.6 GVEL010654
     K22K06Y  C2022 06 01.31488913 03 41.070-09 27 08.75         20.5 GVEL010654
     K22K06Y  C2022 06 01.32353013 03 44.051-09 25 38.31         20.5 GVEL010654
     K22K06Y KC2022 06 01.85349713 06 50.68 -07 55 05.6          20.3 GVEL010104
     K22K06Y KC2022 06 01.86252713 06 53.71 -07 53 34.6          20.0 GVEL010104
     K22K06Y KC2022 06 01.97973513 07 34.442-07 33 07.78               XEL010Y00
     K22K06Y KC2022 06 02.00729313 07 43.440-07 28 31.22         19.8 GXEL010Y00
     K22K06Y KC2022 06 02.16254 13 08 36.34 -07 03 14.3          20.7 GVEL010H36
     K22K06Y KC2022 06 02.17250 13 08 39.54 -07 01 35.5          20.6 GVEL010H36
     K22K06Y KC2022 06 02.18244 13 08 42.86 -06 59 56.1          21.1 GVEL010H36

Observer details:
104 San Marcello Pistoiese.  Observers P. Bacci, M. Maestripieri.  Measurers
    P. Bacci, L. Tesi, G. Fagioli.  0.60-m F4 Reflector + CCD.
654 Table Mountain Observatory, Wrightwood-PHMC.  Observers N. Evans, P. Choi,
    N. Saini, C. Zhai, R. Trahan, M. Shao.  1.0-m Reflector + CCD.
G96 Mt. Lemmon Survey.  Observer G. J. Leonard.  Measurers E. J. Christensen,
    D. Fay, J. B. Fazekas, D. C. Fuls, A. R. Gibbs, A. D. Grauer, H. Groeller,
    J. K. Hogan, R. A. Kowalski, S. M. Larson, G. J. Leonard, D. Rankin, R. L.
    Seaman, A. Serrano, F. C. Shelly, K. W. Wierzchos.  1.5-m reflector + 10K
    CCD.
H36 Sandlot Observatory, Scranton.  Observer G. Hug.  .56 meter Reflector +
    CCD.
I52 Steward Observatory, Mt. Lemmon Station.  Observers A. Serrano, D. Rankin.
    Measurers E. J. Christensen, D. Fay, J. B. Fazekas, D. C. Fuls, A. R.
    Gibbs, A. D. Grauer, H. Groeller, J. K. Hogan, R. A. Kowalski, S. M.
    Larson, G. J. Leonard, D. Rankin, R. L. Seaman, A. Serrano, F. C. Shelly,
    K. W. Wierzchos.  1.0-m prime focus + CCD.
J04 ESA Optical Ground Station, Tenerife.  Observers P. Ruiz, M. Micheli, D.
    Fohring, L. Conversi, D. Koschny.  Measurers M. Micheli, R. Kresken, A.
    Knofel, M. Busch, E. Schwab.  1.0-m f/4.4 reflector + CCD.
Y00 SONEAR Observatory, Oliveira.  Observer C. Jacques.  0.45-m f/2.9 0.45-m
    f/2.9 reflector + CCD.

Orbital elements:
2022 KY6                                                 Earth MOID = 0.1381 AU
Epoch 2022 Jan. 21.0 TT = JDT 2459600.5                 Veres                   
M 309.01460              (2000.0)            P               Q                  
n   0.50914210     Peri.  330.49477     -0.73565147     +0.37795329             
a   1.5532572      Node   242.99282     -0.42861958     -0.90232547             
e   0.2794484      Incl.   39.11742     -0.52450183     +0.20726807             
P   1.94           H   22.16          G   0.15           U   9                  
Residuals in seconds of arc
220531 G96  0.3-  0.0     220601 Y00  0.3+  1.0+    220601 654  0.5-  0.2+
220531 G96  0.1-  0.7+    220601 Y00  0.1-  0.2+    220601 104  0.5-  0.1+
220531 G96  0.3+  0.4-    220601 I52  0.3+  0.4+    220601 104  0.0   0.4-
220531 G96  0.1-  0.3-    220601 I52  0.1-  0.5+    220601 Y00  0.4-  0.1-
220531 I52  0.3-  0.3+    220601 I52  0.3+  0.2-    220602 Y00  0.1-  1.0-
220531 I52  0.3+  0.1+    220601 I52  0.3-  0.5+    220602 H36  0.7+  0.5+
220531 I52  0.4+  0.4-    220601 654  0.0   0.1-    220602 H36  0.1-  0.2-
220531 I52  0.0   0.0     220601 654  0.2-  0.2-    220602 H36  1.0+  0.0
220531 J04  0.0   0.9-    220601 654  0.2-  0.1-
220531 Y00  0.2+  0.5+    220601 654  0.6-  0.1-

Ephemeris:
2022 KY6                 a,e,i = 1.55, 0.28, 39                  q = 1.1192
Date    TT    R. A. (2000) Decl.     Delta      r    Elong.  Phase     V
2022 05 03    07 59 35.3 -67 28 48   0.3357  1.1193   100.6    62.3    22.3
...
2022 05 18    11 01 24.7 -51 56 59   0.2153  1.1285   118.0    52.3    21.0
...
2022 05 26    12 19 55.2 -29 25 43   0.1898  1.1392   127.8    44.6    20.5
...
2022 06 01    13 01 50.3 -10 21 45   0.2026  1.1497   127.9    44.1    20.7
2022 06 02    13 07 41.2 -07 30 01   0.2074  1.1516   127.3    44.5    20.8
2022 06 03    13 13 15.6 -04 46 37   0.2127  1.1536   126.5    44.9    20.8
...
2022 06 09    13 41 50.6 +08 28 06   0.2556  1.1667   120.8    48.4    21.3
...
2022 06 17    14 10 38.9 +19 12 45   0.3308  1.1870   113.4    51.7    22.0
...
2022 07 02    14 49 29.2 +28 02 02   0.4917  1.2320   104.0    53.2    23.0

M. P. C. Staff               (C) Copyright 2022 MPC           M.P.E.C. 2022-L10




More information about the Iaude mailing list